Location: Mountain Grove
(34.0887°N, 86.6172°W)
Time: 22:04:46
(UTC+00:00)

Cosmos 1892 - Pass Details

Date: 14 July 2020
Orbit: 505 x 523 km, 82.5° (Epoch: 08 August)

Event Time Altitude Azimuth Distance (km) Brightness Sun altitude
Exits shadow 02:56:36 66° 109° (ESE) 559 2.5 -20.4°
Maximum altitude 02:56:43 67° 95° (E) 556 2.6 -20.4°
Drops below altitude 10° 03:00:30 10° 12° (NNE) 1,739 5.8 -20.9°
Sets 03:02:39 0° 10° (N) 2,633 6.8 -21.2°
